Printer-friendly version

IAU Minor Planet Center

Minor Planet Center

MPEC 2000-T31: 2000 RJ34

The following Minor Planet Electronic Circular may be linked-to from your own Web pages, but must not otherwise be redistributed electronically.


Read MPEC 2000-T30 Read MPEC 2000-T32


M.P.E.C. 2000-T31                                Issued 2000 Oct.  9, 16:35 UT

     The Minor Planet Electronic Circulars contain information on unusual
         minor planets and routine data on comets.  They are published
   on behalf of Commission 20 of the International Astronomical Union by the
          Minor Planet Center, Smithsonian Astrophysical Observatory,
                          Cambridge, MA 02138, U.S.A.

             Prepared using the Tamkin Foundation Computer Network

                              MPC@CFA.HARVARD.EDU
          URL http://cfa-www.harvard.edu/iau/mpc.html  ISSN 1523-6714

                                   2000 RJ34

                           Revision to MPEC 2000-S47

Observations:
     K00R34J 2 1993 04 02.73711 16 43 47.90 -40 48 26.0                      260
     K00R34J 2 1993 04 02.77183 16 43 47.38 -40 48 36.1                      260

Observer details:
260 Siding Spring-DSS.  Trail located and measured by R. Haver, A. Pelloni,
    G. Forti.  1.2-m Schmidt.

Orbital elements:
2000 RJ34
Epoch 2000 Sept. 13.0 TT = JDT 2451800.5                Williams
M 315.68986              (2000.0)            P               Q
n   0.22967759     Peri.  142.84339     -0.42365145     -0.89874053
a   2.6407278      Node   331.70036     +0.76319986     -0.28692008
e   0.5708922      Incl.   13.79823     +0.48789899     -0.33157552
P   4.29           H   15.1           G   0.15           U   4
Residuals in seconds of arc
930402 260  1.3-  1.8-    000925 670  1.1+  0.3-    001003 704  0.3-  0.3-
930402 260  1.3+  1.4+    000925 704  0.4+  0.8+    001003 704  1.0-  0.2-
000901 704  1.3-  0.2-    000925 704  0.7+  0.2+    001003 704  0.3+  0.3+
000901 704  1.0-  0.1-    000925 557  0.2+  0.7-    001003 704  0.2-  0.0
000901 704  1.5-  0.1-    000925 557  0.6+  0.3-    001003 704  0.8-  0.1-
000901 704  1.2-  0.3+    000925 557  0.6+  0.6-    001003 704  0.1+  0.3+
000903 704  1.1-  0.8-    000925 557  1.0+  0.7-    001003 704  0.3+  0.2-
000903 704  0.9-  0.5-    000925 106  0.1+  0.2+    001003 704  0.6-  0.6+
000903 704 (2.6-  0.1-)   000925 106  0.3+  0.6+    001003 704  0.1-  0.2-
000903 704  1.0-  0.4-    000925 106  0.7+  0.6+    001003 704  0.3-  0.1-
000903 704  0.8-  0.5+    000927 739  1.1+  0.9-    001003 704  0.1+  0.3+
000923 704  0.4-  0.4+    000927 739  0.2+  0.3-    001004 704  0.3-  0.2-
000923 704  0.3-  0.0     000927 739  1.2+  0.4-    001004 704  0.2+  0.0
000923 704  0.5-  0.1+    000928 704  0.2-  0.1+    001004 704  0.2+  0.3+
000923 704  0.1-  0.1+    000928 704  0.0   0.1+    001004 704  0.4+  0.0
000923 704  0.1-  0.0     000928 704  0.3+  0.2+    001004 118  0.4+  0.5-
000924 704  1.0+  0.0     000928 704  0.2+  0.3+    001004 118  0.1-  0.0
000924 704  0.8+  0.6+    000928 704  0.1-  0.2+    001006 704  0.5-  0.4-
000924 704  0.6+  0.3+    001001 704  0.6+  0.4+    001006 704  0.1-  0.3-
000924 704  1.0+  0.0     001001 704  0.0   0.0     001006 704  0.4-  0.1-
000925 670  0.2+  0.5+    001001 704  0.3+  0.4+    001006 704  0.1+  0.0
000925 704  0.5+  0.4+    001001 704  0.5-  0.0     001006 704  0.5-  0.0
000925 704  0.5+  0.3+    001001 704  0.2+  0.3-    001007 704  0.4-  0.0
000925 704  0.3+  0.5+    001002 704  0.2+  0.1+    001007 704  0.5-  0.1-
000925 704  0.4+  0.3+    001002 704  0.3+  0.0     001007 704  1.0-  0.6-
000925 704  0.6+  0.6+    001002 704  0.1+  0.2-    001007 704  0.8-  0.3-
000925 704  0.7+  0.1-    001002 704  0.4+  0.4+    001007 704  0.3+  0.6-
000925 704  1.3+  0.2+    001002 704  0.3+  0.1+    001009 739  1.4-  0.6-
000925 704  0.4+  0.3+    001003 704  0.4-  0.3-    001009 739  1.8-  0.0

Ephemeris:
2000 RJ34                a,e,i = 2.64, 0.57, 14                  q = 1.1332
Date    TT    R. A. (2000) Decl.     Delta      r     Elong.  Phase     V
2000 10 03    23 48.93   +15 03.7    1.160    2.139   163.8     7.5    17.6
2000 10 13    23 34.17   +14 37.8    1.122    2.068   154.7    11.9    17.6
2000 10 23    23 21.11   +13 59.7    1.108    1.996   143.3    17.3    17.7
2000 11 02    23 11.33   +13 19.5    1.113    1.924   131.9    22.6    17.8
2000 11 12    23 05.78   +12 47.5    1.133    1.850   121.2    27.2    17.9
2000 11 22    23 04.75   +12 31.3    1.161    1.777   111.3    31.2    18.0
2000 12 02    23 08.18   +12 35.3    1.192    1.703   102.5    34.4    18.1
2000 12 12    23 15.77   +13 01.8    1.222    1.630    94.7    37.0    18.1
2000 12 22    23 27.16   +13 50.7    1.248    1.558    87.7    39.1    18.1
2001 01 01    23 42.14   +15 01.2    1.268    1.488    81.7    40.8    18.1
2001 01 11    00 00.52   +16 31.2    1.280    1.420    76.5    42.3    18.0
2001 01 21    00 22.26   +18 17.7    1.284    1.357    72.1    43.7    18.0
2001 01 31    00 47.48   +20 16.6    1.281    1.298    68.5    44.9    17.9
2001 02 10    01 16.35   +22 22.1    1.271    1.245    65.5    46.2    17.9
2001 02 20    01 49.09   +24 26.0    1.257    1.201    63.3    47.4    17.8
2001 03 02    02 25.91   +26 18.0    1.241    1.167    61.8    48.5    17.7
2001 03 12    03 06.74   +27 45.4    1.227    1.144    61.0    49.4    17.7
2001 03 22    03 51.10   +28 34.4    1.217    1.134    60.7    50.0    17.7
2001 04 01    04 38.01   +28 33.4    1.215    1.137    60.9    50.2    17.7
2001 04 11    05 25.93   +27 35.3    1.225    1.152    61.4    49.8    17.7
2001 04 21    06 13.17   +25 41.3    1.248    1.180    62.0    48.8    17.8
2001 05 01    06 58.34   +22 59.6    1.288    1.219    62.7    47.3    17.9
2001 05 11    07 40.50   +19 43.4    1.344    1.266    63.2    45.4    18.0
2001 05 21    08 19.32   +16 06.9    1.416    1.321    63.4    43.2    18.1
2001 05 31    08 54.92   +12 22.2    1.503    1.383    63.2    40.9    18.3
2001 06 10    09 27.57   +08 38.3    1.604    1.448    62.5    38.4    18.5
2001 06 20    09 57.68   +05 01.1    1.716    1.517    61.3    36.0    18.6

Gareth V. Williams           (C) Copyright 2000 MPC           M.P.E.C. 2000-T31

Read MPEC 2000-T30 Read MPEC 2000-T32


Our Web policy. Index to the CBAT/MPC/ICQ pages.


Valid HTML 4.01!